Location: Augsburg
(48.3836°N, 10.8929°E)
Time: 21:15:07
(UTC+01:00)

ISS - Pass Details

Date: 11 January 2018
Orbit: 402 x 407 km, 51.6° (Epoch: 23 January)

Event Time Altitude Azimuth Distance (km) Brightness Sun altitude
Exits shadow 07:13:27 11° 279° (W) 1,416 -1.7 -8.4°
Maximum altitude 07:16:17 32° 215° (SW) 727 -2.6 -8.0°
Drops below altitude 10° 07:19:15 10° 150° (SSE) 1,463 -0.1 -7.5°
Sets 07:21:27 0° 140° (SE) 2,320 1.4 -7.2°
